Gillette, WY (82716)

5:48 AM MDT on September 03, 2015 (GMT -0600)
Gillette-Campbell County | | Change Station
CLOSE
Current Station
Airport
Location: Gillette,
Elevation: 4364 ft
Nearby Weather Stations

Elev 4364 ft 44.34 °N, 105.54 °W | Updated 55 minutes ago

Clear
Clear
74 °F
Feels Like 74 °F
N
15
Wind Variable Wind from SW

Today
High -- | Low -- °F
--% Chance of Precip.
Yesterday
High -- | Low -- °F
Precip. -- in
6:27 AM 7:35 PM
Waning Gibbous, 71% visible
Pressure 29.63 in
Visibility 10.0 miles
Clouds Clear
Dew Point 36 °F
Humidity 25%
Rainfall 0.00 in
Snow Depth Not available.
UV 0 out of 12
Pollen 8.80 out of 12
Air Quality Not available.
Flu Activity Not available.
METAR KGCC 031053Z AUTO 22013KT 10SM CLR 23/02 A2982 RMK AO2 SLP034 T02330022
Pressure 29.63 in
Visibility 10.0 miles
Clouds Clear
Dew Point 36 °F
Humidity 25%
Rainfall 0.00 in
Snow Depth Not available.
UV 0 out of 12
Pollen 8.80 out of 12
Air Quality Not available.
Flu Activity Not available.
METAR KGCC 031053Z AUTO 22013KT 10SM CLR 23/02 A2982 RMK AO2 SLP034 T02330022

10-Day Weather Forecast

×

Almanac

Astronomy

Sep. 03, 2015 Rise Set
Actual Time
Civil Twilight
Nautical Twilight
Astronomical Twilight
Moon
Length of Visible Light
Length of Day
Tomorrow will be .
, % of the Moon is Illuminated

Today's Extremes

State Highs State Lows

Community

WunderPhotos

Upload Photos

1,851,941 photos uploaded!

WunderBlogs® & News

Nearby

Air Quality

  Air Quality AQ Index Pollutant
Not available.

Snow Depth

Station Depth Elevation

Earthquake Activity

City Distance Mag. Time & Date
Minimum magnitude displayed is 2.5.

Coastal Water Temperatures

Place Temperature

Stations

Nearby Weather Stations

Station Location Temp. Windchill Dew Point Humidity Wind Precip. Elev Updated Type